Location: Maddington
(51.2000°N, 1.9167°W)
Time: 15:04:58
(UTC+00:00)

Cosmos 2150 Rocket - Pass Details

Date: 18 September 2020
Orbit: 749 x 808 km, 74.0° (Epoch: 27 October)

Event Time Altitude Azimuth Distance (km) Brightness Sun altitude
Rises 20:27:45 0° 204° (SSW) 3,266 7.2 -20.7°
Reaches altitude 10° 20:30:07 10° 205° (SSW) 2,350 6.4 -21.0°
Maximum altitude 20:35:30 85° 294° (WNW) 810 4.1 -21.7°
Drops below altitude 10° 20:40:59 10° 24° (NNE) 2,397 6.7 -22.5°
Sets 20:43:25 0° 25° (NNE) 3,335 7.4 -22.8°
